Temperature
15 15 15 15 13 12 14 15 16 17 17 17 17 16 15 14 16 15 14 14 14 15 15 15 16 16 16 16 17 17 17 17 17 17 17 17 17 17 17 17 17 17 17 17 17 17 17 17 16
14 15 15 15 12 13 14 15 16 16 17 17 17 16 15 14 14 14 14 14 14 15 15 15 15 16 16 16 16 16 17 17 17 17 17 17 17 17 17 17 17 17 17 17 17 17 17 16 16
14 15 15 12 12 13 15 15 15 16 17 18 16 16 15 14 14 14 14 14 14 14 15 15 15 15 15 16 16 16 16 16 16 16 16 16 16 16 16 17 17 16 16 16 16 16 16 16 16
15 15 14 11 13 14 15 15 15 16 17 17 16 14 14 14 14 14 14 14 14 14 14 14 15 15 15 15 15 15 16 16 16 16 16 16 16 16 16 16 16 16 16 16 16 16 16 16 16
14 14 12 12 13 14 14 15 16 15 15 15 15 13 13 14 14 14 14 14 14 14 14 14 14 14 15 15 15 15 15 15 15 15 16 16 16 16 16 16 16 16 16 16 16 16 16 16 16
14 12 11 12 13 14 14 15 16 14 15 15 14 13 13 13 13 14 14 14 14 14 14 14 14 14 14 14 14 14 14 14 15 15 15 15 15 15 16 15 15 15 15 16 16 16 16 16 16
13 10 12 13 13 14 14 15 15 14 14 14 15 12 12 13 13 13 13 13 13 13 13 13 13 13 13 13 14 14 14 14 14 14 15 15 15 15 15 15 15 15 15 15 15 15 15 15 15
14 10 13 13 13 13 14 15 15 14 14 14 15 12 12 13 13 13 13 13 13 13 13 13 13 13 13 13 13 13 13 13 13 14 14 14 14 14 15 15 15 15 15 15 15 15 15 15 15
14 10 11 12 13 13 14 13 14 14 14 14 14 14 13 13 13 13 12 12 12 12 12 12 12 12 12 12 12 12 13 13 13 13 13 13 14 14 14 14 14 14 14 14 14 15 15 15 15
12 10 12 12 12 12 13 13 13 13 12 12 13 13 13 13 13 12 12 12 12 12 11 11 11 11 11 11 11 12 12 12 12 12 12 13 13 13 13 13 14 14 14 14 14 14 14 14 14
11 10 11 12 12 13 12 12 13 12 11 12 12 13 12 12 12 12 12 11 11 11 11 11 11 11 11 11 11 11 11 11 11 11 11 12 12 12 12 13 13 13 13 13 13 13 14 14 14
11 11 12 12 12 12 12 12 12 12 12 13 13 13 12 12 12 11 11 11 11 11 11 11 10 10 10 10 10 10 10 10 11 11 11 11 11 11 12 12 12 12 12 12 13 13 13 13 13
11 11 11 12 12 12 12 11 11 11 13 13 12 12 12 12 12 11 11 11 11 10 10 10 10 10 10 10 10 10 10 10 10 10 10 10 10 10 11 11 11 11 11 12 12 12 12 12 12
11 11 11 11 11 11 11 10 10 11 12 12 12 12 12 12 11 11 11 10 10 10 10 10 10 10 9 9 9 9 9 9 9 9 9 9 9 10 10 10 10 11 11 11 11 11 11 11 11
11 10 10 10 10 10 10 9 9 12 12 12 12 12 12 11 11 11 11 10 10 10 10 10 9 9 9 9 9 9 9 8 8 9 9 9 9 9 9 9 10 10 10 10 10 10 10 11 11
10 9 9 10 10 10 10 9 10 12 11 11 11 11 11 11 11 11 11 10 10 10 9 9 9 9 9 8 8 8 8 8 8 8 8 8 8 8 8 9 9 9 9 9 9 9 10 10 10
8 8 9 9 9 9 9 9 10 11 11 10 11 11 11 11 11 11 10 10 10 9 9 9 9 9 8 8 8 8 8 8 8 8 8 8 8 8 8 8 8 8 8 9 9 9 9 9 9
8 8 9 9 9 8 8 8 9 10 10 10 10 11 11 10 11 10 10 10 9 9 9 9 9 8 8 8 8 8 8 7 7 7 7 7 7 7 7 7 8 8 8 8 8 8 8 8 8
9 9 9 9 9 8 8 8 9 9 9 9 9 10 10 10 11 10 10 9 9 9 9 9 8 8 8 7 7 7 7 7 7 7 7 7 7 7 7 7 7 7 7 7 7 7 7 8 7
9 8 8 8 8 8 7 7 8 8 8 9 9 9 10 10 10 10 9 9 9 9 8 8 8 8 7 7 7 7 7 7 7 7 7 7 6 6 6 6 7 7 7 7 7 7 7 7 7
8 8 8 8 7 7 7 7 8 8 9 9 10 10 10 10 10 9 9 9 9 8 8 8 8 7 7 7 7 7 7 6 6 6 6 6 6 6 6 6 6 6 6 6 6 6 6 6 6
8 8 8 8 6 5 6 6 7 7 7 8 8 9 10 10 10 10 9 9 9 8 8 8 7 7 7 7 6 6 6 6 6 6 6 6 6 6 6 6 6 6 6 6 6 6 6 6 6
7 8 7 7 6 5 5 5 7 7 7 7 7 9 9 10 10 9 9 9 9 8 8 7 7 7 7 6 6 6 6 6 6 5 5 5 5 5 5 5 5 5 5 5 5 5 5 5 5
7 6 5 4 4 5 5 5 6 6 7 7 7 8 9 9 9 9 9 9 8 8 8 7 7 7 6 6 6 6 6 5 5 5 5 5 5 5 5 5 5 5 5 5 5 5 5 5 5
6 5 5 5 4 5 6 5 6 7 7 7 7 8 9 9 9 9 9 8 8 8 7 7 7 6 6 6 6 6 5 5 5 5 5 5 4 5 5 5 5 5 5 5 4 4 4 5 5
5 6 6 6 5 5 5 5 6 7 7 8 9 9 9 9 9 9 8 8 8 7 7 7 6 6 6 6 5 5 5 5 5 5 4 4 4 4 4 4 4 4 4 4 4 4 4 4 4
5 4 5 4 3 4 4 5 6 7 7 7 7 8 8 9 8 8 8 8 7 7 7 6 6 6 6 5 5 5 5 5 5 4 4 4 4 4 4 4 4 4 4 4 4 4 4 4 4
6 4 3 3 4 5 5 5 6 7 7 6 6 7 8 8 8 8 8 8 7 7 7 6 6 6 5 5 5 5 5 5 4 4 4 4 4 3 3 3 3 3 3 3 3 4 4 4 4
5 5 4 2 3 4 5 6 6 6 6 6 6 7 8 8 8 8 8 7 7 7 6 6 6 5 5 5 5 4 4 4 4 4 4 3 3 3 3 3 3 3 3 3 3 3 3 3 3
4 4 3 4 3 2 3 5 7 6 6 6 6 8 8 8 8 8 8 7 7 6 6 6 6 5 5 5 4 4 4 4 3 3 3 3 3 3 3 3 3 3 3 3 3 3 3 3 3
Wind_Speed
7 5 3 4 5 4 2 4 2 1 2 1 3 8 9 6 4 6 4 2 3 4 5 8 10 11 10 10 11 10 9 8 8 7 7 5 4 4 3 3 4 4 4 5 6 6 6 6 8
4 2 4 5 5 2 4 3 1 1 2 3 5 6 7 5 4 6 1 1 4 6 7 8 10 10 10 10 10 10 9 8 7 7 6 5 4 3 2 2 2 3 3 4 4 5 5 5 7
3 2 4 4 4 5 4 3 4 2 3 3 5 6 5 4 4 4 2 2 6 6 7 8 10 10 10 10 10 10 10 8 7 6 6 5 4 2 1 1 1 2 2 3 3 4 5 6 6
3 4 4 4 3 4 4 4 4 2 4 6 5 5 4 2 3 3 3 5 7 5 6 8 9 9 10 10 10 10 10 9 8 7 6 5 5 3 2 1 0 1 2 3 3 3 4 6 6
4 4 4 1 3 3 2 3 2 3 2 3 4 5 3 3 2 5 5 6 7 4 5 7 8 9 9 9 10 10 11 10 9 8 7 6 6 5 3 2 1 1 1 2 3 3 4 5 6
4 4 4 3 4 2 1 2 2 3 3 2 4 4 2 1 3 4 5 6 6 5 4 6 7 8 8 9 9 10 10 10 10 9 8 7 7 6 4 3 2 2 1 2 3 3 4 4 5
4 4 5 5 3 2 2 1 3 3 3 1 4 5 2 3 1 4 5 5 5 5 5 6 6 7 7 8 8 9 10 10 11 11 10 9 8 7 6 4 3 3 2 2 2 3 3 4 5
5 4 2 2 4 4 1 1 2 3 2 0 3 7 5 5 2 4 5 5 5 4 4 4 5 6 6 6 8 9 10 10 11 11 11 10 9 8 7 6 4 3 4 3 3 3 3 4 4
4 4 3 3 5 4 1 2 2 1 3 2 2 4 5 5 3 5 4 4 4 4 3 3 3 4 4 4 6 7 8 9 10 10 11 10 8 7 6 7 6 5 4 4 4 4 3 3 4
4 4 4 2 3 4 1 2 1 2 2 1 2 2 3 4 5 4 3 2 1 1 1 1 2 2 3 3 4 4 5 6 8 8 8 8 7 6 6 7 7 5 5 5 5 5 3 2 2
4 6 3 1 1 3 2 0 0 3 3 5 6 5 4 3 3 4 3 3 2 1 0 0 1 2 2 2 3 3 3 4 5 6 7 7 6 6 6 5 5 5 4 4 5 4 3 2 2
3 3 4 3 1 2 1 1 1 4 7 6 8 8 5 5 4 5 4 3 3 2 2 1 1 1 1 1 1 1 2 2 3 5 5 5 3 3 3 3 3 3 3 3 3 2 3 3 3
3 2 1 3 2 2 1 3 3 6 7 5 5 5 6 6 5 5 5 5 4 3 3 2 1 1 1 0 1 1 1 1 3 4 5 4 2 3 2 2 2 2 3 2 2 3 3 3 3
2 2 1 2 3 2 3 4 3 9 6 5 6 7 8 7 7 5 5 5 4 4 3 3 2 1 1 1 2 2 2 2 3 3 5 5 3 3 3 3 2 2 3 3 3 3 4 4 3
2 2 3 3 4 2 2 5 7 9 5 6 7 8 8 7 7 7 7 6 6 5 3 3 2 1 1 2 3 2 2 3 2 3 5 5 5 4 3 3 3 3 3 3 3 3 3 4 4
3 2 2 4 4 3 4 7 7 6 7 8 8 8 7 7 7 7 7 6 5 4 3 3 2 1 2 3 4 3 3 3 3 4 5 6 6 5 4 4 4 4 3 2 3 3 3 4 4
1 1 4 4 3 3 5 8 8 4 7 8 8 8 7 7 6 6 6 6 6 5 4 3 3 2 3 3 4 4 3 4 4 4 5 6 7 7 5 4 5 4 3 3 4 3 3 4 4
5 4 4 5 4 3 6 11 11 6 7 8 8 7 7 7 8 6 6 5 5 4 4 3 3 3 3 2 2 2 3 4 4 5 6 7 7 7 5 5 5 4 3 3 3 4 3 4 4
5 4 4 5 3 3 8 13 13 9 8 9 8 8 9 9 7 6 5 4 3 3 3 3 3 4 3 2 2 2 3 4 4 5 7 7 7 7 5 6 5 4 5 5 5 4 4 3 2
3 3 4 4 2 3 7 12 12 8 8 9 10 10 9 7 5 4 4 4 3 3 3 4 5 5 4 3 3 3 4 4 5 5 6 7 7 6 6 6 6 5 5 6 5 4 3 4 2
4 5 5 3 5 3 5 9 6 4 4 5 7 7 7 9 8 6 5 5 4 4 5 5 5 5 5 5 3 3 2 3 3 4 4 5 6 6 6 6 6 6 6 6 6 6 5 5 4
5 4 4 2 1 4 1 5 8 4 4 5 6 6 6 7 6 6 5 4 5 6 5 5 6 6 6 5 4 4 4 6 6 5 5 6 7 7 7 7 7 7 6 6 7 6 6 6 6
4 1 2 1 2 3 1 3 9 3 5 7 7 7 7 7 7 6 6 6 6 6 5 6 6 6 6 5 5 5 6 7 6 5 7 7 6 7 7 8 7 8 7 7 8 7 7 7 7
4 4 5 5 4 3 5 5 8 5 7 6 6 7 7 6 6 5 5 5 5 5 5 5 6 7 6 6 6 6 8 8 8 8 7 6 5 6 7 8 7 8 8 9 9 9 9 9 8
4 5 3 4 3 6 3 5 10 8 7 7 8 8 7 6 5 5 5 5 6 6 6 6 6 7 7 7 7 7 8 8 9 9 7 7 6 6 7 8 8 8 8 9 9 9 10 10 10
4 6 6 5 5 5 2 7 8 7 6 5 6 6 6 6 6 6 7 7 7 7 7 6 6 7 7 7 7 7 8 7 7 8 7 8 7 7 8 8 9 9 9 10 9 9 11 10 11
6 4 5 5 1 3 6 7 9 4 2 2 3 4 6 6 6 7 7 7 7 7 7 7 7 7 7 7 7 7 7 7 8 8 8 7 7 7 8 9 9 9 10 10 10 9 10 10 11
4 7 5 5 4 5 6 6 6 6 6 4 5 6 6 6 6 7 6 7 7 7 7 6 6 7 7 7 6 6 7 7 7 8 8 8 8 8 8 9 10 10 10 10 10 9 10 11 11
5 4 4 4 4 5 5 7 6 8 8 8 8 7 6 6 7 7 6 6 6 6 5 5 6 6 6 6 6 7 7 7 7 7 8 8 8 8 9 10 10 10 10 10 10 10 10 11 11
6 7 8 5 5 5 4 8 6 6 6 7 7 6 6 6 6 6 6 5 5 5 5 5 6 6 6 6 6 7 7 7 7 8 9 8 9 9 10 10 10 10 10 9 10 11 11 11 12
Wind_Direction
345 348 75 61 63 61 237 255 237 81 71 31 79 96 101 92 109 143 204 222 126 105 77 65 59 54 50 48 45 46 47 47 44 42 44 48 58 75 101 121 131 142 150 152 151 149 149 154 159
351 16 63 64 96 131 260 265 175 178 174 145 82 83 79 78 84 117 170 170 109 93 77 66 61 55 51 47 43 40 38 40 39 34 32 34 40 55 80 114 138 149 159 165 165 164 160 160 165
350 74 85 84 132 178 200 218 182 156 48 80 68 57 84 107 120 138 193 131 93 81 75 70 64 56 50 45 42 37 33 29 30 29 25 21 20 23 34 73 152 161 165 170 176 177 172 172 173
59 58 62 88 202 228 195 208 196 127 41 45 87 62 55 37 144 155 142 109 99 85 75 74 67 58 50 45 40 36 30 26 21 18 17 12 5 1 355 340 289 200 182 177 181 185 184 184 182
65 83 87 127 225 232 213 235 174 111 82 44 85 89 54 340 91 119 119 106 107 97 72 71 66 58 49 43 41 36 29 23 19 12 7 6 4 355 345 336 307 266 217 204 198 196 192 191 191
63 79 114 193 215 210 266 301 100 86 87 66 92 104 140 297 87 93 99 99 108 109 79 66 60 55 49 42 37 32 25 21 16 12 6 360 359 356 348 341 334 313 286 251 217 210 203 199 195
111 119 170 192 180 193 233 19 95 109 82 79 124 117 168 273 183 101 93 92 90 86 73 57 54 52 46 41 36 28 24 21 17 13 8 2 358 355 349 347 342 337 316 293 258 234 226 217 210
129 118 181 207 177 202 247 69 95 115 134 52 113 142 185 227 199 94 77 74 73 67 64 57 50 51 46 41 36 29 23 21 17 13 9 4 358 354 354 354 350 345 339 317 298 258 241 231 230
98 91 190 205 178 189 201 91 4 47 95 41 71 166 185 176 132 89 68 49 56 49 39 46 44 41 41 35 31 27 20 16 12 8 6 3 356 351 350 351 355 352 350 334 319 293 258 242 239
95 156 207 204 182 172 141 124 165 69 54 47 34 63 128 128 116 114 114 106 94 49 4 24 28 34 37 27 30 23 15 10 7 3 359 359 355 352 351 346 350 349 345 337 322 313 283 262 249
145 181 188 194 173 141 126 2 216 147 216 205 186 175 159 137 137 147 157 167 180 201 245 330 355 25 40 29 20 12 6 2 357 355 353 353 352 349 349 352 346 344 344 344 324 319 305 285 269
154 202 179 185 166 128 166 210 262 203 215 207 188 172 166 171 185 180 179 192 191 193 227 240 288 14 5 39 7 353 353 351 346 340 344 353 353 339 340 345 342 345 337 328 324 309 298 291 272
181 195 164 181 171 190 212 239 246 247 235 215 177 169 184 193 203 200 184 187 188 196 217 227 240 245 272 267 296 339 312 315 318 326 332 336 334 306 304 313 326 330 333 313 292 294 281 270 267
180 179 222 224 215 220 218 258 239 249 224 200 189 197 205 204 204 200 191 195 202 206 216 224 234 239 252 246 250 264 291 301 308 313 311 311 312 304 286 284 285 295 306 305 285 277 275 257 255
94 49 316 239 202 207 146 278 231 237 193 199 210 212 216 219 209 203 203 201 204 206 211 220 234 239 255 254 250 266 272 287 282 288 295 297 293 295 284 270 267 272 291 297 295 284 286 270 260
69 60 286 262 186 167 148 260 254 217 185 209 223 224 225 228 218 213 208 204 200 194 205 224 236 242 255 251 247 249 258 263 265 274 283 285 282 280 280 273 263 269 279 274 269 270 279 279 263
63 201 242 273 200 168 192 249 267 219 196 221 231 228 223 226 229 221 209 201 195 193 201 220 228 234 252 260 256 250 254 257 264 268 272 275 274 271 262 269 266 261 253 251 266 268 250 270 277
202 212 236 242 230 192 233 257 269 256 225 227 231 226 219 221 228 217 207 197 194 197 205 219 237 249 259 277 280 268 261 259 262 261 263 266 268 268 259 261 265 253 245 251 251 257 255 252 267
171 187 242 252 238 226 246 264 270 259 242 237 232 224 222 226 230 212 204 195 193 206 217 226 238 256 260 280 276 262 260 256 257 255 260 263 265 265 254 262 260 254 244 242 245 251 254 254 254
201 229 257 283 298 257 272 275 271 254 233 224 218 219 219 220 217 208 203 208 211 219 229 236 238 250 250 248 245 238 244 253 250 254 264 261 263 264 265 258 254 250 247 245 239 233 251 256 227
220 211 223 248 322 327 317 301 281 270 240 225 219 217 214 203 199 209 215 225 223 230 230 238 245 251 254 252 255 273 284 284 276 265 260 254 258 257 258 260 261 254 240 242 238 225 238 245 237
227 212 188 190 20 298 29 294 287 275 275 241 231 219 214 206 198 204 210 225 231 236 236 238 248 255 258 253 247 250 263 269 266 261 259 263 256 253 251 251 256 253 241 242 242 237 228 227 240
199 166 134 133 132 317 267 222 282 283 257 249 236 224 218 206 197 203 214 223 234 237 239 243 250 257 260 254 242 250 261 261 268 270 268 266 260 254 252 248 249 250 243 241 242 239 232 225 230
135 67 58 55 74 287 226 192 274 238 225 238 230 225 219 209 205 213 227 235 249 255 253 251 251 260 262 258 254 251 258 263 269 272 270 269 266 259 252 254 251 251 242 238 239 236 232 230 232
101 95 39 356 348 252 217 205 252 247 228 216 214 215 213 208 212 230 240 247 254 259 258 259 260 264 263 258 257 254 256 257 260 264 264 268 271 271 264 260 256 255 247 242 240 238 236 230 230
173 150 162 202 232 273 264 236 255 263 254 230 211 199 204 215 222 228 237 244 253 258 258 260 263 268 267 263 263 263 261 259 259 257 260 263 265 265 263 262 261 258 254 249 242 241 240 234 230
148 185 162 137 153 273 267 278 298 281 278 216 194 196 218 229 235 241 247 248 252 256 256 253 260 270 271 267 267 269 264 260 262 264 262 264 263 266 263 262 265 263 258 252 245 245 244 239 233
146 145 117 140 173 252 279 267 249 255 239 232 218 223 237 245 252 254 253 250 251 252 257 260 260 262 269 271 271 279 274 270 269 271 269 268 267 268 268 266 266 262 258 255 248 247 246 242 238
151 160 151 147 170 182 257 266 228 227 221 217 225 228 233 244 253 259 257 250 250 260 262 269 271 271 274 275 276 281 282 278 275 273 271 270 270 268 268 266 267 264 260 255 250 247 248 244 244
183 179 156 167 218 200 216 268 269 244 233 220 231 239 248 251 258 259 258 264 268 269 269 268 270 274 275 276 278 279 283 284 283 278 275 273 273 271 270 268 266 263 260 255 250 251 250 245 245
Height
1494 1496 1498 1500 1504 1513 1512 1505 1497 1495 1495 1495 1494 1495 1497 1502 1506 1514 1513 1511 1512 1512 1512 1511 1511 1511 1511 1510 1510 1510 1510 1510 1510 1510 1510 1510 1511 1511 1511 1512 1512 1513 1513 1514 1514 1515 1515 1516 1516
1495 1496 1499 1500 1508 1517 1511 1501 1498 1495 1494 1494 1495 1496 1498 1503 1505 1508 1509 1510 1511 1511 1511 1511 1510 1510 1510 1510 1509 1509 1509 1509 1509 1509 1509 1509 1509 1509 1510 1510 1511 1511 1512 1512 1513 1513 1514 1514 1515
1495 1496 1499 1502 1509 1512 1504 1498 1496 1494 1493 1493 1496 1498 1501 1505 1506 1508 1509 1510 1510 1510 1510 1510 1510 1509 1509 1508 1508 1508 1507 1507 1507 1507 1507 1507 1507 1508 1508 1508 1509 1509 1510 1510 1511 1511 1512 1512 1513
1495 1498 1500 1506 1506 1502 1498 1496 1494 1493 1493 1494 1496 1500 1503 1506 1507 1508 1509 1509 1510 1509 1509 1509 1509 1508 1508 1507 1507 1506 1506 1505 1505 1505 1505 1505 1505 1505 1506 1506 1507 1507 1508 1508 1509 1509 1510 1510 1510
1495 1497 1503 1507 1503 1499 1496 1494 1494 1493 1494 1496 1497 1501 1504 1507 1507 1508 1508 1509 1509 1508 1508 1508 1507 1507 1506 1506 1505 1504 1504 1503 1503 1503 1503 1503 1503 1503 1503 1504 1504 1505 1505 1506 1506 1507 1507 1508 1508
1495 1497 1507 1509 1502 1497 1495 1494 1493 1494 1495 1496 1498 1501 1504 1506 1506 1507 1507 1508 1508 1507 1507 1506 1506 1505 1505 1504 1503 1503 1502 1501 1501 1501 1500 1500 1500 1500 1501 1501 1502 1502 1503 1503 1504 1504 1504 1505 1505
1495 1499 1503 1501 1500 1498 1495 1494 1494 1495 1495 1497 1497 1501 1503 1505 1506 1506 1506 1506 1506 1506 1505 1504 1504 1503 1503 1502 1501 1501 1500 1499 1498 1498 1498 1498 1497 1498 1498 1498 1499 1499 1500 1500 1501 1501 1502 1502 1502
1493 1498 1499 1499 1498 1498 1494 1494 1494 1495 1496 1497 1497 1499 1501 1503 1504 1505 1505 1505 1505 1504 1503 1503 1502 1501 1500 1500 1499 1499 1498 1497 1496 1496 1495 1495 1495 1495 1495 1495 1496 1496 1497 1497 1498 1498 1498 1499 1499
1493 1501 1502 1498 1496 1495 1493 1494 1495 1495 1495 1496 1496 1497 1499 1501 1502 1503 1503 1503 1502 1502 1501 1500 1500 1499 1498 1497 1497 1496 1496 1495 1494 1493 1493 1492 1492 1492 1492 1492 1492 1492 1493 1493 1494 1495 1495 1495 1496
1493 1501 1497 1494 1493 1493 1493 1493 1494 1494 1495 1495 1496 1496 1498 1499 1500 1500 1500 1500 1500 1500 1499 1498 1497 1497 1496 1495 1494 1494 1493 1492 1492 1491 1490 1490 1489 1489 1489 1488 1489 1489 1489 1490 1490 1491 1491 1492 1492
1491 1495 1493 1492 1491 1492 1492 1493 1493 1493 1494 1493 1493 1494 1496 1497 1498 1498 1498 1498 1498 1498 1497 1496 1495 1494 1493 1493 1492 1491 1490 1489 1489 1488 1487 1487 1486 1486 1486 1485 1485 1485 1486 1486 1487 1487 1487 1488 1488
1491 1491 1491 1491 1491 1491 1492 1492 1492 1491 1490 1490 1491 1492 1493 1494 1495 1495 1495 1496 1496 1495 1495 1494 1493 1492 1491 1490 1489 1488 1487 1486 1486 1485 1484 1483 1482 1482 1482 1481 1481 1481 1481 1481 1482 1483 1483 1484 1484
1490 1490 1490 1490 1490 1490 1491 1490 1490 1487 1487 1488 1489 1490 1491 1492 1492 1493 1493 1493 1493 1492 1492 1491 1491 1490 1489 1487 1486 1485 1484 1483 1483 1482 1481 1480 1479 1478 1478 1478 1477 1477 1477 1477 1477 1478 1479 1479 1480
1489 1490 1490 1489 1489 1489 1490 1489 1489 1483 1484 1485 1487 1487 1488 1489 1489 1490 1490 1490 1490 1490 1489 1489 1488 1487 1486 1484 1483 1482 1481 1480 1479 1479 1478 1477 1476 1475 1474 1474 1474 1473 1473 1473 1473 1474 1474 1475 1475
1489 1491 1490 1488 1488 1488 1489 1488 1484 1480 1482 1483 1483 1484 1485 1485 1486 1486 1486 1487 1487 1487 1486 1486 1485 1484 1483 1481 1480 1479 1478 1477 1476 1475 1474 1473 1472 1472 1471 1470 1469 1469 1469 1470 1470 1470 1470 1470 1471
1490 1494 1494 1488 1486 1487 1491 1488 1478 1478 1479 1479 1480 1481 1481 1482 1482 1483 1483 1483 1483 1483 1483 1482 1482 1480 1479 1478 1476 1475 1474 1473 1472 1471 1470 1469 1468 1468 1467 1466 1465 1465 1465 1465 1465 1465 1465 1466 1466
1494 1497 1494 1489 1486 1486 1488 1485 1475 1475 1476 1476 1476 1476 1477 1478 1478 1479 1480 1480 1480 1480 1479 1479 1478 1477 1476 1474 1472 1471 1470 1469 1468 1467 1465 1465 1464 1463 1463 1462 1461 1461 1461 1461 1461 1461 1461 1461 1461
1495 1495 1492 1489 1485 1486 1486 1481 1474 1473 1473 1472 1472 1473 1473 1474 1474 1476 1476 1477 1477 1477 1476 1475 1475 1474 1472 1470 1468 1467 1465 1464 1463 1462 1461 1460 1459 1459 1458 1457 1457 1457 1456 1456 1456 1456 1457 1457 1457
1486 1489 1489 1486 1483 1484 1483 1477 1471 1469 1469 1468 1468 1468 1469 1470 1472 1473 1473 1473 1473 1473 1473 1472 1471 1470 1468 1466 1464 1462 1460 1459 1458 1457 1456 1455 1454 1454 1453 1453 1452 1452 1451 1451 1451 1451 1452 1452 1453
1485 1488 1488 1486 1483 1483 1481 1475 1467 1464 1463 1462 1463 1463 1464 1466 1468 1469 1469 1470 1469 1469 1469 1468 1467 1466 1465 1463 1461 1459 1457 1455 1453 1452 1451 1450 1449 1449 1448 1448 1447 1446 1446 1445 1446 1446 1446 1447 1448
1484 1486 1485 1486 1484 1483 1483 1474 1465 1460 1459 1459 1459 1459 1461 1462 1464 1465 1466 1466 1466 1466 1465 1465 1464 1462 1461 1460 1457 1455 1453 1450 1449 1447 1446 1445 1444 1444 1443 1442 1441 1441 1441 1440 1440 1441 1442 1441 1443
1484 1481 1482 1484 1489 1492 1488 1488 1466 1461 1459 1457 1456 1456 1457 1459 1461 1462 1462 1463 1462 1462 1462 1461 1460 1458 1457 1455 1453 1450 1448 1445 1444 1442 1441 1440 1439 1438 1437 1436 1436 1435 1434 1434 1434 1435 1436 1437 1437
1481 1480 1483 1485 1490 1495 1491 1493 1470 1462 1459 1455 1453 1453 1454 1456 1457 1458 1459 1459 1459 1459 1458 1457 1455 1454 1452 1450 1448 1446 1443 1441 1439 1437 1435 1434 1433 1432 1431 1430 1430 1429 1428 1428 1429 1429 1430 1431 1431
1479 1483 1487 1493 1496 1495 1486 1491 1472 1462 1455 1451 1450 1450 1451 1453 1454 1456 1456 1456 1455 1455 1453 1452 1450 1449 1447 1445 1443 1441 1439 1436 1434 1432 1430 1428 1427 1426 1425 1424 1423 1423 1422 1422 1422 1422 1423 1424 1425
1480 1488 1496 1495 1502 1493 1482 1484 1468 1451 1447 1446 1446 1447 1448 1450 1451 1452 1452 1452 1451 1450 1449 1447 1446 1444 1442 1440 1438 1436 1434 1432 1429 1427 1424 1422 1421 1419 1418 1418 1417 1416 1416 1416 1415 1415 1415 1416 1417
1479 1482 1491 1492 1494 1488 1481 1479 1458 1445 1442 1442 1443 1444 1446 1447 1448 1448 1448 1448 1447 1446 1444 1442 1440 1438 1437 1435 1432 1431 1429 1426 1424 1422 1419 1417 1415 1413 1412 1411 1410 1410 1409 1408 1408 1408 1408 1409 1409
1478 1483 1483 1494 1498 1495 1483 1472 1455 1442 1441 1440 1441 1442 1443 1444 1444 1444 1444 1443 1442 1441 1439 1438 1436 1433 1431 1429 1427 1425 1423 1420 1418 1416 1414 1411 1409 1407 1406 1405 1403 1402 1401 1401 1400 1400 1400 1401 1401
1473 1478 1488 1492 1493 1487 1477 1472 1459 1444 1442 1441 1440 1440 1440 1441 1441 1440 1440 1439 1438 1436 1434 1433 1431 1429 1426 1424 1422 1419 1417 1415 1412 1409 1407 1405 1403 1401 1399 1398 1396 1395 1394 1393 1392 1392 1392 1392 1393
1475 1478 1480 1489 1490 1488 1482 1464 1444 1441 1438 1438 1437 1437 1437 1437 1437 1436 1435 1434 1433 1431 1429 1428 1426 1423 1421 1419 1416 1414 1411 1409 1406 1403 1401 1398 1396 1395 1392 1391 1389 1387 1386 1385 1384 1383 1384 1384 1384
1469 1471 1478 1483 1486 1488 1485 1462 1436 1435 1434 1434 1435 1435 1435 1434 1433 1432 1431 1429 1428 1426 1424 1423 1421 1418 1416 1414 1411 1408 1406 1403 1400 1397 1395 1392 1390 1388 1386 1384 1382 1380 1379 1378 1377 1376 1376 1376 1376